Location: Casa Cerruti
(44.9167°N, 10.1000°E)
Time: 14:04:55
(UTC+00:00)

Daily predictions for brighter satellites

Satellite Brightness Start Highest point End
(mag) Time Altitude Azimuth Time Altitude Azimuth Time Altitude Azimuth
Cosmos 2237 Rocket 3.0 18:38:05 10° NNW 18:43:14 35° NE 18:48:21 10° ESE
Helios 1A Rocket 3.1 18:41:10 10° SSE 18:45:15 82° WSW 18:49:24 10° NNW
Cosmos 1818 3.6 18:41:03 10° SSW 18:46:29 80° ESE 18:51:58 10° NE
DMSP B5D2-2 4.1 18:43:34 10° NNE 18:48:51 81° ESE 18:54:07 10° S
H-2A R/B 4.1 18:45:10 10° SSW 18:49:27 29° W 18:53:42 10° NW
Cosmos 1892 3.6 18:49:33 10° NNW 18:53:14 52° W 18:56:55 10° S
Cosmos 1825 2.1 18:51:04 10° N 18:54:51 70° E 18:58:36 10° SSE
MetOp-A 4.2 18:52:10 10° SSE 18:57:31 89° ENE 19:02:55 10° NNW
Cosmos 2227 Rocket 3.2 18:53:28 10° SSE 18:58:00 25° ESE 19:02:32 10° NE
Exosat Rocket 3.7 18:52:06 10° NNW 18:58:24 79° ENE 19:03:27 10° SSE
Abrixas rocket 1.8 18:57:30 10° W 18:58:59 34° NNW 19:00:28 10° ENE
ATLAS 2AS CENTAUR R/B 3.8 18:52:27 10° SW 19:00:13 58° NW 19:07:52 10° NNE
BREEZE-M DEB (TANK) 4.0 18:57:36 10° W 19:00:32 66° NNW 19:07:49 10° ENE
Cosmos 1092 Rocket 4.1 18:55:37 10° N 19:01:53 82° W 19:08:03 10° S
Cosmos 2058 2.9 19:00:17 10° N 19:04:29 83° E 19:08:38 10° S
Cosmos 2297 Rocket 2.7 18:59:23 10° S 19:04:30 36° ESE 19:09:38 10° NE
FALCON 9 DEB 3.6 19:03:08 10° SSW 19:05:52 30° SE 19:08:36 10° ENE
Cosmos 405 4.4 19:03:17 10° SSW 19:06:34 41° WNW 19:09:54 10° N
Cosmos 1633 3.9 19:04:10 10° NNE 19:07:06 23° ENE 19:09:15 14° ESE
Lacrosse 5 rocket 4.0 19:05:06 10° NW 19:07:43 16° N 19:10:26 10° NE
FALCON 9 DEB 3.2 19:07:40 10° SSW 19:10:32 40° SE 19:13:24 10° ENE
Resurs 01 Rocket 2.5 19:08:36 12° SE 19:12:06 32° ENE 19:16:05 10° N
Cosmos 2219 3.6 19:08:29 10° S 19:13:37 39° ESE 19:18:48 10° NE
Resurs 1-3 3.8 19:09:29 10° SSE 19:13:45 55° ENE 19:18:04 10° N
Genesis I 4.2 19:11:11 10° NNW 19:14:53 34° NE 19:17:40 16° ESE
BREEZE-M DEB (TANK) 3.9 19:12:02 10° W 19:15:48 66° N 19:28:46 10° ENE
Cosmos 2333 Rocket 3.6 19:11:49 10° NW 19:17:06 38° WSW 19:22:19 10° S
SJ-6B 2.9 19:14:02 10° S 19:17:44 73° WSW 19:21:32 10° NNW
Cosmos 2084 Rocket 3.7 19:18:13 10° S 19:21:51 37° ESE 19:25:35 10° NE
Cosmos 389 Rocket 2.4 19:18:48 10° S 19:22:18 70° E 19:25:52 10° NNE
Cosmos 1190 Rocket 4.5 19:17:38 10° S 19:22:26 39° ESE 19:27:15 10° NE
FALCON 9 DEB 2.8 19:19:36 10° SW 19:22:34 58° SE 19:25:34 10° ENE
ERS-2 4.0 19:20:06 10° N 19:23:27 35° WNW 19:26:45 10° SW
Ariane Rocket 3.0 19:19:05 10° SSE 19:24:08 83° ENE 19:29:13 10° NNW
Cosmos 614 Rocket 4.0 19:20:49 10° SSW 19:25:57 82° WNW 19:31:05 10° NNE
Cosmos 2251 Rocket 4.2 19:22:29 10° SW 19:27:46 59° WNW 19:33:03 10° NNE
ATLAS 3B R/B 3.4 19:24:53 10° NW 19:31:45 56° WSW 19:38:54 10° SSE
Cosmos 2279 Rocket 3.9 19:26:16 10° S 19:32:27 81° E 19:38:41 10° N
SPOT 1/Viking Rocket 4.4 19:33:39 19° ESE 19:36:36 34° ENE 19:41:16 10° N
MOS 1 4.4 19:31:50 10° S 19:37:29 77° WSW 19:43:09 10° NNW
Cosmos-2242 3.4 19:35:48 18° SSE 19:38:38 41° E 19:42:41 10° NNE
Cosmos 1980 3.7 19:33:59 10° NNW 19:39:43 87° WSW 19:44:11 17° SSE
USA 215 4.0 19:34:16 12° E 19:40:00 45° NNE 19:46:09 10° NW
SL-16 R/B 3.1 19:35:04 10° NNW 19:40:17 36° NE 19:43:26 21° ESE
Cosmos 2151 3.1 19:37:21 10° N 19:41:38 59° E 19:44:10 23° SSE
FALCON 9 DEB 2.6 19:41:19 10° SW 19:44:22 77° SE 19:46:41 16° ENE
SPOT 3 Rocket 3.6 19:40:39 19° SSE 19:44:24 66° ENE 19:49:32 10° N
COSMOS 2455 3.3 19:42:18 10° S 19:47:45 38° ESE 19:53:14 10° NE
SL-4 R/B 2.1 19:46:58 10° SW 19:51:17 74° SSE 19:55:56 10° ENE
Cosmos 2219 Rocket 4.3 19:49:36 10° NW 19:53:55 23° W 19:58:14 10° SSW
BREEZE M DEB (TANK) 3.9 19:51:06 10° SSW 19:54:28 46° SE 20:03:52 10° ENE
ERS-1 Rocket 4.2 19:53:53 21° E 19:55:32 26° ENE 19:59:38 10° N
IGS 5A 3.4 19:54:21 28° SSE 19:56:27 76° ENE 20:00:37 10° N
OBJECT-B 3.3 19:55:18 10° SW 19:57:44 20° W 20:00:12 10° NW
Cosmos 1076 Rocket 4.3 19:53:36 10° NNW 19:57:48 50° W 20:01:45 11° SSW
Landsat 7 3.8 19:55:13 26° SSE 19:57:50 70° ENE 20:02:35 10° N
Cosmos 2266 Rocket 4.0 19:52:07 10° N 19:58:29 70° E 20:02:36 23° SSE
ATLAS 5 CENTAUR R/B 3.6 19:59:00 10° WSW 20:00:06 12° SW 20:01:00 11° SSW
Cosmos 2221 4.3 20:05:05 17° ENE 20:05:05 17° ENE 20:07:04 10° NE
ARIANE 5 R/B 3.2 20:04:04 33° ESE 20:05:11 39° ENE 20:09:17 10° N
Cosmos 2344 4.4 19:58:38 10° WSW 20:05:52 52° NW 20:13:44 10° NE
USA 245 3.3 20:05:50 43° E 20:06:04 44° ENE 20:09:01 10° N
Cosmos 407 Rocket 3.8 20:01:27 10° SSW 20:06:33 67° WNW 20:11:43 10° NNE
MetOp-B 4.1 20:09:17 28° SSE 20:12:13 86° ENE 20:17:37 10° NNW
Meteor 2-3 Rocket 3.7 20:08:42 10° NNW 20:14:29 86° W 20:17:47 26° S
Meteor 1-27 4.2 20:14:09 20° S 20:18:13 75° E 20:24:03 10° NNE
Cosmos 44 Rocket 3.4 20:13:18 10° SSW 20:18:14 57° ESE 20:23:20 10° NE
Cosmos 1140 Rocket 4.0 20:14:48 10° SW 20:19:50 59° WNW 20:24:56 10° NNE
Cosmos 1954 Rocket 3.8 20:19:29 14° SSW 20:23:52 82° ESE 20:29:04 10° NNE
CZ-2C R/B 3.6 20:20:43 10° NNE 20:25:10 81° WNW 20:27:43 25° SSW
Timation 2 Rocket 4.3 20:20:20 10° SW 20:26:54 72° WNW 20:33:13 10° NNE
Cosmos 2237 Rocket 3.3 20:22:08 10° NW 20:27:20 39° WSW 20:30:47 19° SSW
Cosmos 2263 Rocket 3.6 20:34:38 21° ENE 20:34:38 21° ENE 20:37:21 10° NE
Spot 2 Rocket 3.4 20:32:07 47° SSE 20:33:36 82° ENE 20:38:42 10° NNW
CARTOSAT-1 3.5 20:33:27 62° ESE 20:33:55 68° ENE 20:38:13 10° N
BREEZE M DEB (TANK) 3.2 20:28:39 10° W 20:35:24 51° NNW 20:36:34 32° NE
Cosmos 1766 Rocket 3.4 20:31:19 10° N 20:35:41 89° W 20:36:22 64° S
FALCON 9 DEB 4.3 20:38:44 10° W 20:41:37 37° NNW 20:41:38 37° NNW
Cosmos 2227 Rocket 3.0 20:36:11 10° SW 20:41:41 52° WNW 20:47:14 10° NNE
Cosmos 2082 3.6 20:37:15 17° SSW 20:41:43 88° ESE 20:47:23 10° NNE
Okean 3 Rocket 3.7 20:40:20 10° NNW 20:44:52 72° W 20:45:39 57° SSW
Lacrosse 5 rocket 3.5 20:44:44 10° NNW 20:48:11 23° NNE 20:49:58 18° NE
Cosmos 2297 Rocket 3.6 20:43:18 10° WSW 20:48:30 37° NW 20:53:46 10° NNE
Cosmos 1869 3.7 20:47:58 53° WSW 20:48:33 60° W 20:52:27 10° N
Resurs 01 Rocket 3.4 20:46:10 17° SW 20:48:36 27° W 20:52:23 10° NW
Cosmos 1553 Rocket 4.2 20:48:26 44° ESE 20:48:57 45° E 20:54:42 10° NNE
Meteor 1-4 Rocket 3.1 20:50:30 53° NW 20:50:30 53° NW 20:53:43 10° N
Cosmos 468 Rocket 3.8 20:45:58 10° NNW 20:51:08 78° ENE 20:51:46 66° SE
Cosmos 841 Rocket 4.1 20:51:00 10° N 20:55:55 41° ENE 20:56:15 40° ENE
Terra 1.8 21:03:51 70° ENE 21:03:51 70° ENE 21:08:33 10° N
Cosmos 1763 Rocket 3.2 20:58:52 10° NNW 21:03:58 86° WSW 21:04:17 78° S
Cosmos 540 Rocket 3.6 21:06:40 10° NNW 21:11:41 61° ENE 21:11:41 61° ENE
Cosmos 921 Rocket 4.1 21:08:59 10° N 21:12:21 37° NE 21:12:21 37° NE
SPOT 5 2.9 21:14:07 67° WSW 21:14:09 67° WSW 21:18:57 10° NNW
Meteor 2-2 Rocket 4.2 21:15:41 62° SSW 21:16:42 84° W 21:22:26 10° N
NOSS 3-1 (C) 4.0 21:10:21 10° NW 21:17:55 87° NE 21:20:23 52° SE
Cosmos 1842 Rocket 3.9 21:20:26 64° NNW 21:20:26 64° NNW 21:24:25 10° N
USA 215 3.1 21:21:36 61° SSE 21:22:46 77° SW 21:29:21 10° NW
SL-16 R/B 3.1 21:19:11 10° NW 21:24:25 39° WSW 21:25:19 36° SW
SL-08 ROCKET BODY 4.2 21:25:04 10° N 21:31:09 84° W 21:31:36 76° SSW
SL-4 R/B 3.4 21:26:56 10° W 21:31:16 42° NNW 21:33:32 25° NE
COSMOS 2455 3.9 21:27:56 10° WSW 21:33:37 43° NW 21:39:21 10° NNE
ERS-1 Rocket 3.7 21:33:53 43° WSW 21:34:06 43° W 21:38:54 10° NNW
Cosmos 2227 4.3 21:40:44 68° NE 21:40:44 68° NE 21:45:49 10° NNE
Cosmos 2221 3.7 21:41:54 39° WNW 21:41:54 39° WNW 21:45:28 10° N
Sich 1 4.4 21:38:54 10° N 21:41:28 33° NNE 21:41:28 33° NNE
Cosmos 1943 3.2 21:44:53 10° NNW 21:50:06 76° N 21:50:06 76° N
Cosmos 1745 Rocket 3.9 21:46:55 10° N 21:53:15 82° W 21:53:25 81° SW
SeaSat 1 3.9 21:48:50 10° NE 21:51:18 28° NE 21:51:18 28° NE
Cosmos 1570 Rocket 4.3 21:48:44 10° NNW 21:53:15 65° NNW 21:53:15 65° NNW
Cosmos 1709 Rocket 4.1 21:52:17 10° N 21:58:09 65° ENE 21:58:09 65° ENE
S3M 4.1 22:05:25 69° WSW 22:05:49 71° W 22:12:14 10° N
Cosmos 883 Rocket 4.5 22:06:43 73° NE 22:06:43 73° NE 22:12:34 10° N
Cosmos 2263 Rocket 2.7 22:16:16 51° WNW 22:16:28 51° WNW 22:21:55 10° NNE
USA 229 DEB 4.1 22:19:53 10° NW 22:27:01 58° WSW 22:27:01 58° WSW
USA 229 4.1 22:19:58 10° NW 22:27:07 58° WSW 22:27:07 58° WSW
Lacrosse 5 rocket 3.4 22:23:32 10° NW 22:25:35 27° NW 22:25:35 27° NW
Cosmos 1844 Rocket 4.0 22:30:56 30° NE 22:30:56 30° NE 22:33:54 10° NE
ALOS 2 4.3 22:35:37 31° N 22:35:37 31° N 22:38:01 10° N
Terra 4.3 22:42:44 13° W 22:42:44 13° W 22:44:28 10° WNW
NOSS 3-1 (A) 4.4 22:37:41 10° NW 22:45:03 52° WSW 22:45:03 52° WSW
Cosmos 2154 Rocket 4.5 22:58:24 10° N 23:04:10 54° ENE 23:04:10 54° ENE
SL-4 R/B 4.5 23:07:20 10° WNW 23:09:09 21° NW 23:09:09 21° NW
SJ 16-02 4.2 23:17:23 10° ENE 23:17:23 10° ENE 23:17:31 10° ENE
Cosmos 2184 Rocket 4.2 23:09:27 10° N 23:14:58 69° NNW 23:14:58 69° NNW
Cosmos 2278 Rocket 4.2 23:19:29 18° ENE 23:19:29 18° ENE 23:21:48 10° NE
ATLAS 5 CENTAUR R/B 3.5 23:20:29 10° NNW 23:25:31 36° NE 23:27:06 31° ENE
SeaSat 1 4.1 23:26:52 10° N 23:30:55 26° NW 23:31:05 26° NW
Cosmos 1844 4.3 23:41:40 54° NNW 23:41:40 54° NNW 23:46:26 10° NNE
USA 281 3.2 23:43:08 77° NE 23:43:08 77° NE 23:49:40 10° NNW
COSMOS 2406 4.1 23:39:24 10° NNW 23:44:47 42° ENE 23:44:55 42° ENE
Gbstr 26 Del rocket 4.3 23:53:47 55° ENE 23:53:47 55° ENE 23:58:02 10° ENE
